Home > Time Zones > World Clock > Weather > U.S.A. > Bend > Past weeks

Flag Weather past 2 weeks in Bend, Oregon, U.S.A.

Now
51 °F

Partly sunny.


Feels Like: 46 °F
Forecast: 45 / 52 °F
Wind: 15 mph from Southwest

Location: Roberts Field Airport

Current Time: Nov 27, 2014 at 12:01:54 PM

Latest Report: Nov 27, 2014 at 10:56 AM


Visibility: 10 mi

Pressure: 30.02 "Hg

Humidity: 71%

Dew point: 42 °F

Location of BendLocation

Historic Weather in Bend — Graph

°F

Bend temperature yesterday

Maximum temperature yesterday: 57 °F (at 2:56 PM)
Minimum temperature yesterday: 30 °F (at 2:56 AM)
Average temperature yesterday: 44 °F

Past Weeks' High & Low Weather Summary

 TemperatureHumidityPressure
High57 °F (Nov 25, 10:56 AM)100% (Nov 15, 4:56 PM)30.76 "Hg (Nov 15, 4:56 PM)
Low-18 °F (Nov 16, 2:56 AM)40% (Nov 27, 2:56 AM)29.55 "Hg (Nov 21, 8:56 PM)
Average27 °F80%30.23 "Hg
* Reported Nov 12 10:56 AM — Nov 27 10:56 AM, Bend, Weather by CustomWeather, © 2014

Note: Actual official high and low records may vary slightly from our data, if they occured in-between our weather recording intervals... More about our weather records

Advertising

Bend weather history for previous 24 hours

 ConditionsComfort  
Time TempWeatherWind HumidityBarometerVisibility
10:56 AM
Nov 27
51 °FPartly sunny.15 mph71%30.02 "Hg10 mi
9:56 AM49 °FLight rain. Mostly cloudy.14 mph80%30.01 "Hg10 mi
8:56 AM52 °FMostly cloudy.14 mph59%30.00 "Hg10 mi
7:56 AM53 °FLight rain. Broken clouds.28 mph51%29.97 "Hg10 mi
6:56 AM53 °FPassing clouds.14 mph47%29.99 "Hg10 mi
5:56 AM53 °FPassing clouds.16 mph48%29.99 "Hg10 mi
4:56 AM53 °FPartly cloudy.16 mph48%30.00 "Hg10 mi
3:56 AM54 °FClear.14 mph43%29.99 "Hg10 mi
2:56 AM54 °FPassing clouds.14 mph40%29.98 "Hg10 mi
1:56 AM54 °FPassing clouds.15 mph41%30.00 "Hg10 mi
12:56 AM53 °FClear.9 mph45%30.03 "Hg10 mi
11:56 PM
Nov 26
51 °FPassing clouds.10 mph50%30.05 "Hg10 mi
10:56 PM48 °FPassing clouds.6 mph59%30.06 "Hg10 mi
9:56 PM50 °FClear.10 mph52%30.07 "Hg10 mi
8:56 PM51 °FClear.14 mph50%30.07 "Hg10 mi
7:56 PM51 °FClear.5 mph52%30.10 "Hg10 mi
6:56 PM52 °FClear.6 mph53%30.09 "Hg10 mi
5:56 PM53 °FClear.8 mph51%30.10 "Hg10 mi
4:56 PM47 °FClear.6 mph71%30.12 "Hg10 mi
3:56 PM53 °FSunny.5 mph59%30.14 "Hg10 mi
2:56 PM57 °FSunny.7 mph51%30.14 "Hg10 mi
1:56 PM55 °FSunny.9 mph55%30.17 "Hg10 mi
12:56 PM50 °FSunny.8 mph66%30.19 "Hg10 mi
Weather by CustomWeather, © 2014

See weather overviewHow to use our weather pages